Location: ?????????
(44.2517°N, 135.2292°E)
Time: 16:49:32
(UTC+00:00)

ARIANE 6 FM1 Upper Stage - Pass Details

Date: 23 January 2026
Orbit: 522 x 609 km, 62.0° (Epoch: 11 February)

Event Time Altitude Azimuth Distance (km) Brightness Sun altitude
Rises 09:31:50 0° 212° (SSW) 2,714 6.8 -17.1°
Reaches altitude 10° 09:34:04 10° 209° (SSW) 1,810 5.8 -17.5°
Maximum altitude 09:38:07 69° 126° (SE) 577 2.5 -18.2°
Enters shadow 09:39:16 43° 58° (ENE) 757 2.8 -18.4°
